[[{"header":{"parameterUnit":"m.s-1","parameterCategory":2,"la1":30.2992,"la2":30.254,"lo1":-89.0895,"lo2":-89.0443,"dy":0.0025,"dx":0.0025,"nx":19,"ny":19,"refTime":"2026-05-21T03:00:00:Z","depth":"0","parameterNumber":2,"parameterNumberName":"U-component_of_CURRENTS"},"data":[0,0,0,0.2988,0.2991,0.3124,0.3124,0.3259,0.326,0,0,0,0,0,0,0,0,0,0,0,0.2932,0.2932,0.2988,0.2992,0.3124,0.3124,0.3259,0.326,0,0,0,0,0,0,0,0,0,0,0,0.2931,0.2932,0.2933,0.2992,0.3124,0.3124,0.3259,0.3165,0,0,0,0,0,0,0,0,0,0,0.3039,0.2984,0.2932,0.2933,0.2993,0.3124,0.3124,0.316,0.3171,0.3193,0,0.3218,0,0.3253,0.327,0.327,0,0,0,0.2981,0.2975,0.3028,0.2934,0.2995,0.3123,0.3061,0.3166,0.3178,0.3206,0.322,0.3226,0.3255,0.327,0.3271,0.3461,0.3462,0,0,0.2974,0.2939,0.302,0.3035,0.3035,0.3057,0.3065,0.3173,0.3177,0.322,0.3229,0.3257,0.3271,0.3272,0.346,0.3461,0,0,0,0.296,0.2934,0.2984,0.3029,0.3062,0.3061,0.3071,0.3172,0.3194,0.3231,0.3259,0.3272,0.3274,0.3459,0.346,0.353,0,0,0,0.2955,0.2928,0.2981,0.2959,0.306,0.3121,0.3066,0.3185,0.32,0.3258,0.3272,0.3275,0.3457,0.3459,0.3526,0.3564,0,0,0,0.2924,0.2924,0.2945,0.2958,0.3024,0.3121,0.3148,0.3189,0.3217,0.327,0.3276,0.3457,0.3459,0.3522,0.3558,0.3671,0,0,0,0.2877,0.2898,0.2944,0.2991,0.3023,0.3131,0.3147,0.3217,0.3263,0.3273,0.3457,0.346,0.3521,0.3554,0.3666,0.3659,0.3683,0,0,0.2874,0.2896,0.2931,0.2976,0.3072,0.3111,0.3234,0.3292,0.3312,0.3415,0.342,0.3527,0.3557,0.367,0.3802,0.3821,0,0,0,0.2913,0.2943,0.2978,0.3053,0.3134,0.324,0.3306,0.3358,0.3465,0.3356,0.3558,0.3576,0.3645,0.363,0.3646,0.3532,0.3471,0.3471,0.3471,0.2855,0.2936,0.3012,0.3127,0.3199,0.3338,0.3442,0.3535,0.3527,0.3594,0.3655,0.382,0.3805,0.3817,0.3699,0.3677,0.3677,0.3678,0.3678,0.291,0.2981,0.3073,0.3174,0.3288,0.3397,0.3588,0.3637,0.383,0.376,0.3824,0.3732,0.3838,0.3706,0.3683,0.3682,0.3681,0.3681,0.3681,0.2912,0.2959,0.3025,0.3176,0.3303,0.3448,0.3633,0.3779,0.3889,0.3988,0.3991,0.3989,0.3856,0.4021,0.4022,0.4022,0.4023,0.4023,0.4024,0.2897,0.2968,0.3054,0.3193,0.3261,0.341,0.3676,0.3829,0.4029,0.409,0.4091,0.3906,0.3925,0.3892,0.4034,0.4033,0.4031,0.403,0.4029,0.2991,0.2967,0.3071,0.3138,0.3286,0.3341,0.3607,0.389,0.4095,0.4187,0.4082,0.4163,0.4151,0.4136,0.4109,0.43,0.43,0.43,0.43,0.3018,0.303,0.3089,0.3139,0.3221,0.3309,0.3438,0.3716,0.4007,0.4086,0.4129,0.4007,0.4001,0.3972,0.3961,0.3927,0.4068,0.4067,0.4067,0.3128,0.309,0.3104,0.3087,0.3158,0.3208,0.324,0.3401,0.3825,0.4044,0.3979,0.3989,0.379,0.379,0.3721,0.3715,0.3651,0,0]},{"header":{"parameterUnit":"m.s-1","parameterCategory":2,"la1":30.2992,"la2":30.254,"lo1":-89.0895,"lo2":-89.0443,"dy":0.0025,"dx":0.0025,"nx":19,"ny":19,"refTime":"2026-05-21T03:00:00:Z","depth":"0","parameterNumber":3,"parameterNumberName":"V-component_of_CURRENTS"},"data":[0,0,0,0.0105,0.0105,0.0098,0.0098,0.0032,0.0032,0,0,0,0,0,0,0,0,0,0,0,0.0101,0.0101,0.0105,0.0105,0.0099,0.0098,0.0032,0.0032,0,0,0,0,0,0,0,0,0,0,0,0.0101,0.0101,0.0102,0.0106,0.0099,0.0098,0.0032,0.0047,0,0,0,0,0,0,0,0,0,0,0.0059,0.0074,0.0101,0.0102,0.0106,0.0099,0.0098,0.0048,0.0046,0.0025,0,0.0036,0,0.0043,0.0028,0.0028,0,0,0,0.0086,0.0076,0.0076,0.0102,0.0106,0.0099,0.0096,0.0047,0.0045,0.0022,0.0035,0.0033,0.0042,0.0027,0.0027,0.0074,0.0075,0,0,0.0086,0.0093,0.0078,0.0075,0.0118,0.0096,0.0096,0.0046,0.0047,0.0035,0.0032,0.0041,0.0027,0.0027,0.0073,0.0074,0,0,0,0.01,0.0094,0.0095,0.0077,0.0086,0.0097,0.0096,0.0049,0.0051,0.0031,0.004,0.0027,0.0026,0.0072,0.0073,0.0244,0,0,0,0.01,0.0104,0.0096,0.0099,0.0088,0.0078,0.01,0.0054,0.0049,0.004,0.0027,0.0026,0.0071,0.0073,0.0237,0.0384,0,0,0,0.0099,0.0103,0.0107,0.0099,0.0106,0.0079,0.0077,0.0053,0.0055,0.0028,0.0025,0.007,0.0072,0.0231,0.0371,0.0472,0,0,0,0.0099,0.0144,0.0108,0.0159,0.0107,0.0164,0.0077,0.0092,0.0079,0.0026,0.0071,0.0073,0.0229,0.0363,0.0464,0.056,0.0606,0,0,0.0163,0.0152,0.0184,0.0153,0.0244,0.0162,0.0259,0.0189,0.0104,0.0077,0.0078,0.0239,0.037,0.0471,0.0689,0.0732,0,0,0,0.021,0.0244,0.0261,0.0301,0.0311,0.0365,0.0296,0.0277,0.0251,0.011,0.0237,0.0316,0.0373,0.0413,0.0446,0.0251,0.0084,0.0083,0.0083,0.0308,0.0325,0.0421,0.0457,0.0492,0.05,0.0539,0.0499,0.0372,0.0389,0.045,0.0648,0.0691,0.0718,0.0515,0.0405,0.0405,0.0406,0.0406,0.0465,0.0552,0.0571,0.0678,0.0714,0.0787,0.0793,0.0731,0.0779,0.0627,0.067,0.0587,0.0766,0.0535,0.0417,0.0415,0.0414,0.0413,0.0412,0.0574,0.0634,0.0685,0.0845,0.0971,0.0992,0.1144,0.1088,0.0983,0.1039,0.1018,0.1015,0.0818,0.102,0.1021,0.1022,0.1023,0.1024,0.1025,0.0692,0.0755,0.0888,0.1034,0.114,0.1278,0.1362,0.141,0.1386,0.1277,0.1275,0.0882,0.0836,0.0818,0.1042,0.1039,0.1037,0.1035,0.1034,0.0893,0.0893,0.1075,0.1192,0.1433,0.1625,0.1682,0.1787,0.1787,0.1792,0.1296,0.1378,0.1343,0.1314,0.1306,0.1644,0.1644,0.1644,0.1644,0.1011,0.1032,0.1246,0.1428,0.1649,0.1788,0.206,0.2121,0.1835,0.163,0.1434,0.1261,0.1245,0.119,0.1163,0.1145,0.1435,0.1434,0.1433,0.1164,0.118,0.1347,0.1489,0.1742,0.1955,0.223,0.2393,0.1883,0.1396,0.1151,0.116,0.0863,0.0854,0.0721,0.0699,0.0652,0,0]}],[{"header":{"parameterUnit":"m.s-1","parameterCategory":2,"la1":30.2992,"la2":30.254,"lo1":-89.0895,"lo2":-89.0443,"dy":0.0025,"dx":0.0025,"nx":19,"ny":19,"refTime":"2026-05-21T03:00:00:Z","depth":"2","parameterNumber":2,"parameterNumberName":"U-component_of_CURRENTS"},"data":[0,0,0,0.2727,0.2731,0.2902,0.2903,0.3046,0.3048,0,0,0,0,0,0,0,0,0,0,0,0.2638,0.2638,0.2726,0.2731,0.2902,0.2903,0.3046,0.3048,0,0,0,0,0,0,0,0,0,0,0,0.2637,0.2638,0.2639,0.2732,0.2902,0.2903,0.3046,0.2934,0,0,0,0,0,0,0,0,0,0,0.2776,0.2722,0.2638,0.2639,0.2733,0.2902,0.2903,0.2929,0.2941,0.295,0,0.2964,0,0.3025,0.3056,0.3057,0,0,0,0.2724,0.2713,0.275,0.2639,0.2734,0.2901,0.2823,0.2936,0.2949,0.2965,0.2967,0.2974,0.3027,0.3057,0.3058,0.3262,0.3263,0,0,0.2714,0.2681,0.2741,0.2758,0.2762,0.2817,0.2828,0.2945,0.2954,0.2967,0.2978,0.303,0.3058,0.3059,0.326,0.3262,0,0,0,0.2692,0.2674,0.2711,0.275,0.2797,0.2822,0.2835,0.2949,0.2958,0.298,0.3031,0.3059,0.306,0.3259,0.3261,0.3326,0,0,0,0.2686,0.2663,0.2706,0.269,0.2794,0.2892,0.2836,0.2949,0.2966,0.303,0.3059,0.3061,0.3258,0.326,0.3321,0.3349,0,0,0,0.2633,0.2659,0.267,0.2688,0.2769,0.2891,0.2908,0.2954,0.2997,0.3057,0.3062,0.3257,0.326,0.3317,0.3342,0.3501,0,0,0,0.2604,0.263,0.2669,0.2738,0.2767,0.2911,0.2909,0.3024,0.3082,0.3059,0.3258,0.3261,0.3315,0.3338,0.3495,0.3342,0.3357,0,0,0.2622,0.2631,0.2679,0.272,0.2839,0.2887,0.3039,0.3107,0.313,0.3209,0.3215,0.3323,0.3342,0.3499,0.3517,0.3527,0,0,0,0.2678,0.2731,0.2769,0.2859,0.2938,0.3035,0.3127,0.3185,0.3293,0.3181,0.3367,0.3377,0.3475,0.3371,0.338,0.3275,0.3275,0.3274,0.3274,0.268,0.2758,0.2845,0.2951,0.3031,0.3171,0.3268,0.3369,0.3365,0.3438,0.3463,0.3668,0.3557,0.3562,0.35,0.35,0.3501,0.3501,0.3501,0.2769,0.2829,0.2923,0.3036,0.3108,0.3234,0.3413,0.3465,0.3653,0.3579,0.3672,0.3482,0.3575,0.3507,0.3506,0.3505,0.3505,0.3504,0.3504,0.2779,0.2808,0.2882,0.304,0.3156,0.3292,0.3475,0.3623,0.3724,0.3816,0.3769,0.3765,0.372,0.3893,0.3894,0.3894,0.3895,0.3896,0.3896,0.2723,0.2797,0.2919,0.3066,0.316,0.332,0.3557,0.3696,0.3852,0.3851,0.385,0.3802,0.3789,0.3747,0.3909,0.3907,0.3905,0.3904,0.3903,0.2821,0.2798,0.2992,0.3096,0.3291,0.3313,0.3538,0.3695,0.3902,0.3934,0.3894,0.389,0.3872,0.386,0.3821,0.3995,0.3995,0.3995,0.3995,0.2858,0.2868,0.3054,0.3181,0.3314,0.3321,0.3279,0.3282,0.3514,0.3538,0.3557,0.3365,0.3373,0.3315,0.3316,0.3262,0.329,0.3288,0.3286,0.2993,0.3007,0.3111,0.3155,0.3276,0.3238,0.2973,0.2663,0.2846,0.325,0.3343,0.3965,0.3727,0.3722,0.3664,0.3654,0.3579,0,0]},{"header":{"parameterUnit":"m.s-1","parameterCategory":2,"la1":30.2992,"la2":30.254,"lo1":-89.0895,"lo2":-89.0443,"dy":0.0025,"dx":0.0025,"nx":19,"ny":19,"refTime":"2026-05-21T03:00:00:Z","depth":"2","parameterNumber":3,"parameterNumberName":"V-component_of_CURRENTS"},"data":[0,0,0,-0.0006,-0.0006,-0.0019,-0.0019,-0.01,-0.01,0,0,0,0,0,0,0,0,0,0,0,-0.0014,-0.0014,-0.0006,-0.0006,-0.0019,-0.0019,-0.01,-0.01,0,0,0,0,0,0,0,0,0,0,0,-0.0014,-0.0014,-0.0014,-0.0006,-0.0019,-0.0019,-0.0099,-0.0078,0,0,0,0,0,0,0,0,0,0,-0.0059,-0.004,-0.0014,-0.0014,-0.0006,-0.0018,-0.0019,-0.0076,-0.0079,-0.0107,0,-0.0104,0,-0.0092,-0.0106,-0.0106,0,0,0,-0.0024,-0.0038,-0.0046,-0.0014,-0.0005,-0.0018,-0.0018,-0.0078,-0.0081,-0.0111,-0.0105,-0.0107,-0.0093,-0.0106,-0.0106,-0.0075,-0.0074,0,0,-0.0023,-0.0015,-0.0044,-0.0048,-0.0004,-0.0017,-0.0018,-0.0079,-0.0079,-0.0105,-0.0108,-0.0095,-0.0107,-0.0107,-0.0076,-0.0075,0,0,0,-0.0009,-0.0014,-0.002,-0.0046,-0.0036,-0.0017,-0.0018,-0.0077,-0.008,-0.0109,-0.0096,-0.0107,-0.0108,-0.0077,-0.0076,0.0066,0,0,0,-0.0009,-0.0005,-0.002,-0.0015,-0.0034,-0.0044,-0.0014,-0.0076,-0.0082,-0.0095,-0.0107,-0.0109,-0.0078,-0.0076,0.006,0.0155,0,0,0,-0.0014,-0.0005,-0.0006,-0.0015,-0.0011,-0.0042,-0.0049,-0.0077,-0.0073,-0.0106,-0.0109,-0.0079,-0.0077,0.0055,0.0145,0.0255,0,0,0,-0.0007,0.0025,-0.0006,0.0035,-0.0011,0.0038,-0.0049,-0.0039,-0.0056,-0.0107,-0.0078,-0.0076,0.0053,0.0138,0.0248,0.0259,0.0293,0,0,0.0044,0.0031,0.0057,0.0031,0.0115,0.0038,0.0115,0.0038,-0.0033,-0.0069,-0.0068,0.0062,0.0144,0.0254,0.0386,0.0416,0,0,0,0.0082,0.011,0.0125,0.0164,0.0171,0.0207,0.0139,0.0114,0.0085,-0.003,0.0067,0.0115,0.0179,0.0171,0.0195,-0.0065,-0.0066,-0.0066,-0.0066,0.0169,0.0185,0.0268,0.0298,0.0323,0.0321,0.0335,0.0289,0.0186,0.02,0.0233,0.0421,0.0412,0.0431,0.0216,0.0217,0.0218,0.0218,0.0218,0.03,0.0363,0.0394,0.0481,0.0504,0.0555,0.054,0.0483,0.0503,0.0378,0.0433,0.0324,0.0466,0.023,0.0228,0.0226,0.0225,0.0224,0.0223,0.0385,0.0425,0.0472,0.0612,0.071,0.0723,0.0839,0.0783,0.0676,0.0712,0.0685,0.0681,0.0527,0.0733,0.0734,0.0735,0.0735,0.0736,0.0737,0.0451,0.0507,0.0622,0.0749,0.0864,0.0989,0.1034,0.1053,0.1,0.0875,0.0874,0.0595,0.0578,0.0557,0.0751,0.0748,0.0747,0.0745,0.0744,0.0558,0.0559,0.0763,0.0887,0.1145,0.1283,0.1328,0.1335,0.1318,0.1281,0.0959,0.0949,0.0913,0.089,0.0877,0.1142,0.1142,0.1142,0.1142,0.061,0.0625,0.089,0.1112,0.135,0.1429,0.1574,0.1499,0.1316,0.1159,0.1157,0.1019,0.1003,0.0961,0.0937,0.0919,0.1196,0.1196,0.1196,0.0679,0.0754,0.0953,0.1158,0.1434,0.1555,0.1651,0.1557,0.1246,0.1194,0.1127,0.1154,0.0937,0.0917,0.0834,0.0803,0.0766,0,0]}],[{"header":{"parameterUnit":"m.s-1","parameterCategory":2,"la1":30.2992,"la2":30.254,"lo1":-89.0895,"lo2":-89.0443,"dy":0.0025,"dx":0.0025,"nx":19,"ny":19,"refTime":"2026-05-21T03:00:00:Z","depth":"4","parameterNumber":2,"parameterNumberName":"U-component_of_CURRENTS"},"data":[0,0,0,0.1517,0.152,0.1635,0.1636,0.1792,0.1793,0,0,0,0,0,0,0,0,0,0,0,0.1494,0.1495,0.1517,0.152,0.1635,0.1636,0.1791,0.1793,0,0,0,0,0,0,0,0,0,0,0,0.1493,0.1494,0.1496,0.152,0.1635,0.1636,0.1791,0.1704,0,0,0,0,0,0,0,0,0,0,0.1591,0.1565,0.1494,0.1496,0.1521,0.1635,0.1636,0.17,0.1709,0.1739,0,0.1768,0,0.1775,0.1803,0.1803,0,0,0,0.1528,0.1557,0.1585,0.1496,0.1522,0.1635,0.1585,0.1705,0.1716,0.1752,0.177,0.1776,0.1778,0.1804,0.1805,0.196,0.1961,0,0,0.1521,0.1516,0.1578,0.1592,0.1567,0.1582,0.1589,0.1712,0.1731,0.1771,0.1779,0.178,0.1805,0.1806,0.196,0.196,0,0,0,0.1498,0.1512,0.1538,0.1586,0.1602,0.1585,0.1593,0.1726,0.1735,0.1781,0.1782,0.1806,0.1807,0.1959,0.196,0.2104,0,0,0,0.1494,0.1497,0.1535,0.1533,0.16,0.1663,0.1605,0.1727,0.174,0.1781,0.1806,0.1809,0.1958,0.196,0.2099,0.2091,0,0,0,0.1485,0.1496,0.1513,0.1533,0.1577,0.1661,0.1678,0.173,0.1741,0.1804,0.1809,0.1958,0.1959,0.2094,0.2085,0.2114,0,0,0,0.147,0.1481,0.1514,0.1515,0.1576,0.164,0.1677,0.1737,0.1789,0.1806,0.1958,0.196,0.2092,0.2081,0.2111,0.1807,0,0,0,0.1461,0.148,0.1471,0.1502,0.1574,0.1624,0.1728,0.1811,0.1823,0.1918,0.1922,0.21,0.2084,0.2114,0.1894,0,0,0,0,0.145,0.1452,0.1475,0.1525,0.1595,0.1736,0.1807,0.1864,0.1994,0.186,0.2089,0.2072,0.2087,0.1899,0.1967,0.1967,0.1966,0.1966,0.1966,0.143,0.1455,0.1499,0.1576,0.1657,0.1815,0.1923,0.202,0.2043,0.2128,0.2185,0.2287,0.2098,0.2214,0.2214,0.2215,0.2216,0.2216,0.2216,0.1413,0.1426,0.1534,0.1606,0.1789,0.1925,0.21,0.2168,0.231,0.2298,0.2309,0.2058,0.223,0.2228,0.2226,0.2224,0.2223,0.2222,0.2221,0.1396,0.1413,0.1493,0.1617,0.1825,0.2009,0.2158,0.228,0.2394,0.2447,0.2209,0.2347,0.2337,0.2466,0.2466,0.2466,0.2467,0.2467,0.2467,0.1352,0.1419,0.1457,0.1615,0.1705,0.1912,0.217,0.224,0.2339,0.2272,0.2464,0.2369,0.2361,0.2348,0.2469,0.2469,0.2468,0.2468,0.2468,0.1202,0.1288,0.1283,0.1343,0.152,0.1636,0.1946,0.2084,0.2116,0.2074,0.2175,0.2189,0.2083,0.2081,0.2055,0.2094,0.209,0.2087,0,0.1088,0.1133,0.1106,0.1103,0.1173,0.1429,0.1509,0.1688,0.1813,0.1763,0.2017,0.2122,0.2133,0.2003,0.1996,0.1956,0,0,0,0.0916,0.0956,0.0876,0.0952,0.099,0.1214,0.1532,0.1547,0.184,0.1811,0.1998,0.2021,0.2222,0.2476,0.2346,0.2336,0.2307,0,0]},{"header":{"parameterUnit":"m.s-1","parameterCategory":2,"la1":30.2992,"la2":30.254,"lo1":-89.0895,"lo2":-89.0443,"dy":0.0025,"dx":0.0025,"nx":19,"ny":19,"refTime":"2026-05-21T03:00:00:Z","depth":"4","parameterNumber":3,"parameterNumberName":"V-component_of_CURRENTS"},"data":[0,0,0,0.0038,0.0038,0.0033,0.0032,-0.004,-0.004,0,0,0,0,0,0,0,0,0,0,0,0.0031,0.0031,0.0038,0.0038,0.0033,0.0032,-0.0039,-0.004,0,0,0,0,0,0,0,0,0,0,0,0.0031,0.0031,0.0031,0.0038,0.0033,0.0032,-0.0039,-0.0022,0,0,0,0,0,0,0,0,0,0,-0.001,0.0003,0.0031,0.0031,0.0038,0.0033,0.0032,-0.0021,-0.0023,-0.0051,0,-0.0048,0,-0.0037,-0.0045,-0.0046,0,0,0,0.0025,0.0005,0.0002,0.0031,0.0039,0.0033,0.0031,-0.0022,-0.0025,-0.0055,-0.0049,-0.0051,-0.0039,-0.0046,-0.0046,-0.0076,-0.0076,0,0,0.0025,0.0028,0.0005,0.0001,0.0041,0.0032,0.0031,-0.0023,-0.0025,-0.0049,-0.0052,-0.004,-0.0046,-0.0047,-0.0076,-0.0076,0,0,0,0.0035,0.0028,0.0028,0.0003,0.0012,0.0032,0.0031,-0.0023,-0.0023,-0.0052,-0.0041,-0.0047,-0.0048,-0.0076,-0.0076,0.0007,0,0,0,0.0035,0.0035,0.0028,0.0029,0.0014,0.0006,0.0033,-0.002,-0.0025,-0.004,-0.0047,-0.0048,-0.0077,-0.0076,0.0005,0.0042,0,0,0,0.003,0.0035,0.0035,0.003,0.0034,0.0007,0.0003,-0.002,-0.0018,-0.0046,-0.0049,-0.0077,-0.0076,0.0002,0.0038,0.0036,0,0,0,0.0031,0.0052,0.0036,0.0065,0.0035,0.0061,0.0004,0.0009,-0.0007,-0.0047,-0.0076,-0.0076,0.0001,0.0035,0.0034,0.0098,0,0,0,0.0062,0.0055,0.0075,0.0061,0.0111,0.0061,0.0091,0.0038,-0.0013,-0.0067,-0.0067,0.0005,0.0037,0.0036,0.0131,0,0,0,0,0.0089,0.0102,0.0114,0.0138,0.0144,0.0145,0.0101,0.0069,0.0026,-0.0018,-0.0006,0.0011,0.0007,0.0037,-0.0073,-0.0073,-0.0073,-0.0073,-0.0073,0.0124,0.0141,0.0183,0.0201,0.0218,0.0198,0.0182,0.0125,0.0076,0.0066,0.007,0.0115,0.0152,0.0058,0.0058,0.0059,0.0059,0.0059,0.0059,0.0173,0.0202,0.0229,0.0277,0.0285,0.0305,0.0257,0.0217,0.017,0.0129,0.0121,0.0114,0.0067,0.0066,0.0065,0.0064,0.0063,0.0063,0.0062,0.0193,0.0213,0.0245,0.0317,0.0369,0.0371,0.0408,0.0338,0.0249,0.0245,0.0238,0.0156,0.0157,0.0233,0.0233,0.0233,0.0233,0.0233,0.0234,0.0199,0.0235,0.0296,0.0359,0.0431,0.049,0.0486,0.0467,0.0369,0.0335,0.0263,0.0173,0.0167,0.0165,0.0236,0.0236,0.0236,0.0235,0.0235,0.0233,0.0254,0.0356,0.0429,0.056,0.0605,0.0605,0.0562,0.0523,0.046,0.0362,0.0355,0.0321,0.0311,0.0313,0.0431,0.0432,0.0433,0,0.0262,0.0273,0.044,0.0567,0.0668,0.0689,0.0713,0.067,0.0536,0.0533,0.0481,0.0372,0.0366,0.0328,0.0321,0.0324,0,0,0,0.0303,0.0363,0.0492,0.0616,0.074,0.0734,0.072,0.0703,0.0559,0.0551,0.0461,0.0453,0.0367,0.0245,0.0175,0.0168,0.016,0,0]}]]